Theta_e
353 354 355 355 356 357 356 355 355 356 356 357 359 357 355 354 353 352 352 352 352 352 352 353 353 353 351 349 351 352 351 351 350 349 348 347 348 355 369 373 373 375 377 375 375 374 373 372 372 372 371 370 370 368 368 368 368 367 366 365 365 365 365 364 364 363 363 362 362 362 362 362 361 360 360 360 361 361 361 360 359 360 359 360 358
353 353 353 354 355 356 356 354 352 352 352 351 353 354 352 351 351 351 352 351 351 351 354 353 353 351 349 347 346 346 348 349 349 347 346 346 346 349 362 372 373 374 378 377 376 375 375 374 373 373 372 370 370 370 370 369 367 366 367 366 366 365 365 365 364 364 364 363 362 362 361 362 361 361 361 361 362 361 360 360 360 360 360 360 359
353 352 350 351 352 353 352 352 350 349 351 350 352 354 353 352 352 351 350 350 349 349 350 349 349 348 348 349 346 346 345 345 345 345 344 345 346 349 355 370 378 378 378 377 375 376 376 375 374 373 373 372 370 370 369 370 370 367 367 367 367 366 366 365 364 364 364 364 363 362 362 362 362 362 361 361 362 361 360 361 360 360 361 361 361
356 355 352 348 349 349 348 347 346 348 354 352 351 354 354 352 353 352 351 350 348 346 347 347 346 346 346 346 346 345 343 343 345 346 346 348 347 347 351 361 378 380 379 377 376 376 376 375 375 374 373 373 372 371 370 369 370 368 367 366 366 365 366 366 365 364 364 364 364 364 363 362 362 362 362 362 362 361 361 361 361 360 361 361 361
356 355 360 349 347 347 349 354 350 349 350 353 352 352 352 350 350 351 349 347 346 346 348 346 344 344 345 346 349 344 344 347 346 344 345 347 348 352 360 369 373 381 380 378 376 375 376 376 375 375 374 373 373 372 371 370 370 371 368 366 367 365 365 364 365 365 365 365 364 364 364 363 361 362 362 362 362 362 362 360 360 361 361 361 361
356 352 352 348 349 348 349 349 351 353 352 352 350 351 348 346 346 347 352 353 347 345 344 343 344 342 342 345 347 345 344 346 345 344 345 347 348 353 359 364 368 370 374 378 376 377 377 376 375 374 374 374 373 373 371 371 370 370 369 366 366 367 365 365 364 365 365 365 365 365 365 364 363 362 362 362 362 362 361 361 361 361 361 361 361
354 354 351 351 351 352 351 349 351 355 355 353 352 349 346 345 346 344 343 343 343 344 344 343 342 339 338 343 343 344 345 345 345 345 346 345 348 350 354 359 363 367 370 369 377 377 378 376 375 374 373 374 374 373 372 371 371 371 371 370 368 367 367 365 365 364 364 366 365 365 365 365 363 364 362 362 362 362 361 362 361 361 361 362 361
355 355 352 354 352 354 356 356 356 355 350 348 349 346 345 345 345 344 340 341 340 338 338 337 338 339 340 342 342 345 344 345 344 342 343 344 345 348 351 354 358 363 369 363 362 367 374 373 374 374 374 374 374 374 373 373 372 371 371 371 369 369 368 367 366 366 365 365 365 366 365 365 365 363 363 362 362 362 362 361 361 362 362 362 362
354 357 352 355 353 352 349 351 355 350 347 346 345 347 345 346 344 347 344 340 339 340 342 341 341 342 343 341 339 342 342 342 341 342 346 345 345 347 350 352 356 367 365 363 361 360 367 372 372 373 374 374 374 374 374 373 373 372 372 372 372 371 370 367 367 366 366 366 366 364 364 365 365 365 365 365 363 362 362 362 362 362 362 362 362
353 358 354 354 355 353 349 349 349 349 348 346 345 345 344 343 344 348 350 346 343 343 342 342 343 343 342 342 342 340 341 341 343 351 344 343 345 347 348 350 353 356 359 360 360 359 358 365 372 372 373 375 374 374 374 373 373 373 372 372 372 372 370 370 367 367 367 367 367 365 365 364 364 365 365 365 365 363 362 363 362 362 362 362 362
353 357 353 353 355 356 355 352 350 347 345 344 345 345 347 345 348 348 350 349 346 346 345 344 344 343 341 341 342 342 343 344 351 348 344 343 343 350 349 348 349 352 356 358 358 357 356 355 358 366 370 376 375 374 374 374 374 373 373 371 372 372 372 372 370 368 368 368 368 366 364 364 364 363 365 365 365 364 363 363 363 362 361 362 363
354 356 355 357 355 354 354 354 351 350 346 342 340 340 341 342 343 347 348 349 351 348 346 344 342 340 342 342 342 343 343 345 346 346 347 344 344 349 347 348 349 350 353 357 357 355 354 353 358 356 363 370 376 376 375 374 374 373 373 373 372 372 372 373 372 370 368 369 368 367 366 366 365 365 364 365 365 365 364 363 363 362 362 362 362
359 355 355 360 361 356 355 353 350 350 347 344 343 344 345 345 348 352 352 348 347 348 347 345 341 338 339 340 342 344 347 349 348 346 344 344 344 344 348 350 349 348 350 353 354 354 352 352 352 353 356 361 369 377 376 375 374 374 373 373 373 373 372 372 372 373 370 369 369 368 367 367 366 366 365 363 364 365 365 364 363 363 362 362 362
361 357 358 355 354 354 354 353 349 348 352 354 354 359 355 351 349 347 352 349 345 347 346 342 338 335 333 335 338 341 345 350 350 346 344 345 345 344 345 344 344 347 349 350 351 352 352 352 352 353 352 355 358 365 373 374 374 375 374 373 373 373 374 373 371 372 371 370 370 368 369 368 368 367 366 365 365 364 365 365 364 364 363 363 363
359 361 357 357 356 355 354 350 346 350 353 348 347 347 348 350 349 348 345 347 351 351 348 346 337 337 338 337 332 335 339 340 346 348 349 347 344 343 345 344 344 343 346 350 351 350 351 351 351 352 351 352 354 359 367 372 374 376 375 375 373 373 373 373 373 372 372 372 369 368 370 369 369 368 367 366 366 365 365 363 365 364 364 364 364
358 357 359 357 356 354 351 346 346 350 349 346 347 346 346 345 344 345 347 343 341 342 350 346 342 339 333 333 332 337 330 331 338 343 346 345 345 345 346 346 347 345 348 350 349 349 348 350 350 350 351 351 353 358 363 368 373 376 376 376 374 372 373 374 374 374 373 372 372 372 368 370 369 368 368 368 367 366 366 365 365 365 365 365 364
358 358 359 356 355 353 350 349 348 347 349 348 348 347 346 345 344 343 345 344 342 340 344 347 345 345 340 336 332 330 330 334 338 339 343 342 345 347 348 348 347 348 346 344 344 345 346 346 348 349 350 351 353 356 360 365 367 372 373 375 374 373 371 373 374 374 374 373 372 372 372 371 370 370 369 369 368 367 366 366 365 365 365 365 364
357 357 357 358 354 353 351 351 349 348 350 349 348 348 347 345 343 343 344 346 344 341 338 347 351 351 349 343 340 333 333 338 339 334 343 347 348 347 347 348 349 349 349 347 346 347 349 346 344 345 350 350 353 354 358 361 366 362 363 366 372 373 372 372 374 374 374 374 373 373 373 372 372 371 370 369 369 368 367 367 367 366 365 364 364
355 355 355 356 354 352 352 351 349 346 352 352 349 347 345 343 346 344 345 348 347 344 348 350 352 352 352 351 353 351 345 340 337 339 337 340 344 345 347 349 350 349 349 351 350 348 347 349 348 348 345 347 347 346 348 354 361 361 363 363 365 367 372 374 373 374 374 374 374 373 373 373 372 371 371 370 369 368 368 368 367 366 366 365 365
353 351 350 350 353 350 349 348 346 346 352 350 348 347 347 348 353 352 355 357 355 352 349 347 342 340 345 342 345 346 350 347 345 341 339 336 338 345 347 348 347 348 348 349 350 349 348 347 348 348 347 348 350 350 350 353 352 353 356 359 362 362 363 369 374 375 375 375 374 373 373 372 372 371 370 369 369 368 368 368 368 367 367 366 365
350 348 346 346 354 351 348 347 346 348 357 352 350 348 352 355 354 352 349 347 347 347 341 337 336 335 336 336 337 337 341 343 344 343 341 336 336 339 341 345 345 345 346 348 349 349 350 350 351 351 352 350 349 348 346 345 347 352 355 359 364 363 362 365 373 375 375 375 375 374 373 372 371 371 370 370 369 369 369 368 368 368 368 367 366
347 346 344 344 348 352 350 348 350 350 357 353 353 358 358 354 349 343 341 339 339 339 337 335 336 337 336 335 333 333 335 335 336 335 338 339 336 336 338 338 336 340 344 344 345 346 346 348 350 350 351 349 349 348 346 345 346 348 353 360 361 362 362 361 368 375 375 376 375 375 373 373 372 371 370 370 370 370 370 370 369 366 367 366 367
346 346 345 344 343 350 351 351 351 355 362 360 359 358 353 348 344 340 339 338 337 336 337 337 337 336 334 334 332 332 331 331 330 332 332 331 332 333 335 337 338 337 340 343 343 342 348 349 349 350 352 350 349 347 345 344 349 350 356 360 362 363 363 363 366 370 375 375 375 375 374 373 372 371 370 370 369 370 370 370 369 368 367 366 366
344 343 343 345 347 347 361 354 364 363 359 357 355 352 346 344 341 340 339 339 337 338 335 334 334 333 333 333 333 333 332 332 333 332 330 330 330 329 330 332 337 338 340 340 340 339 345 344 346 348 351 351 352 354 355 351 353 357 356 361 362 362 366 365 362 360 359 360 366 370 372 373 372 372 371 370 370 369 369 369 370 367 368 367 365
339 340 342 343 347 349 352 363 364 360 357 352 349 345 342 341 340 340 339 337 335 334 333 332 332 331 331 332 332 330 330 332 333 331 331 330 328 326 328 332 330 331 335 336 335 338 341 343 346 346 348 352 353 350 351 352 352 357 358 358 358 360 358 357 359 358 353 357 361 363 359 360 363 372 371 371 370 370 370 370 369 368 367 367 363
340 339 341 344 351 360 363 364 362 358 352 345 344 344 342 340 340 339 338 336 334 332 332 332 331 331 331 330 330 329 329 331 331 331 329 328 327 327 327 328 329 330 333 333 335 334 336 339 343 344 343 347 348 349 350 352 353 359 359 359 360 356 356 358 360 360 358 360 361 360 360 360 361 363 366 370 371 369 371 370 368 367 366 364 363
340 344 351 355 359 358 357 355 350 346 343 342 343 341 340 340 340 338 338 335 332 332 331 330 330 330 330 329 332 328 328 330 331 331 331 330 330 329 329 325 325 326 329 331 332 334 334 336 339 343 340 342 343 347 350 353 357 358 355 350 354 358 358 355 355 356 357 358 358 358 357 355 356 358 362 365 367 366 365 365 364 364 361 363 361
341 350 355 358 356 353 351 347 344 343 343 343 342 340 339 337 336 335 334 336 331 331 330 330 329 330 329 329 328 328 330 330 332 332 331 332 331 331 330 327 322 320 324 325 327 330 336 333 336 341 340 338 340 344 351 351 350 355 355 346 346 350 351 350 350 352 354 354 354 354 355 356 358 358 359 359 363 363 362 359 358 359 356 356 358
347 355 355 355 352 348 344 343 342 342 342 342 342 340 337 335 334 333 331 331 333 330 330 329 330 329 329 330 329 329 330 332 332 333 332 331 331 331 331 330 329 322 319 319 322 327 332 336 333 337 341 339 339 342 342 344 356 354 354 348 346 346 348 349 351 350 350 352 352 352 354 353 353 354 352 354 357 358 358 359 354 352 351 352 355
356 357 355 353 349 348 342 342 342 342 341 341 340 339 336 334 333 333 332 331 329 330 332 331 330 331 332 329 329 329 331 330 330 331 331 331 331 331 331 332 332 325 323 321 321 328 330 334 337 335 339 339 341 342 343 342 354 354 352 351 347 346 348 348 349 347 347 348 349 349 351 351 351 351 350 352 355 357 357 357 358 354 354 355 358
357 353 352 348 344 342 342 341 341 340 340 340 340 337 335 333 334 332 331 331 329 328 329 332 332 331 329 328 329 329 330 330 329 330 331 332 331 330 331 331 331 329 326 324 319 326 333 329 334 337 338 340 343 341 342 343 350 353 350 350 349 350 351 351 350 349 348 347 348 348 349 350 352 354 354 354 354 355 355 356 361 360 357 357 360
352 351 348 345 343 342 342 341 341 340 339 339 337 335 333 331 331 330 330 330 330 329 328 329 331 330 328 328 329 329 330 329 328 329 330 332 333 331 331 331 330 330 329 325 322 323 330 332 333 335 337 339 343 339 341 342 346 351 346 347 354 353 348 348 349 348 347 346 346 346 346 349 352 353 354 354 355 357 355 355 359 359 357 357 357
349 345 343 343 343 343 342 342 339 338 338 336 335 332 332 330 330 329 328 328 327 328 329 328 329 329 329 328 329 330 330 328 328 328 330 330 331 331 332 330 330 331 330 326 324 326 328 333 333 334 337 339 339 341 341 340 342 345 348 347 347 346 345 345 347 346 345 344 344 344 344 345 349 352 354 356 357 357 357 357 356 355 355 356 356
346 343 342 343 343 342 341 340 339 338 336 334 332 331 330 329 329 332 329 327 326 325 326 325 327 329 328 328 329 330 331 328 328 328 329 330 331 331 331 332 330 332 332 329 326 325 325 330 332 335 337 339 336 341 340 339 341 344 342 344 344 343 342 342 342 343 344 343 341 341 340 340 342 344 346 348 351 354 356 358 357 356 353 352 355
345 343 343 343 342 341 339 338 338 338 335 333 331 330 329 328 327 328 330 327 327 327 327 326 326 326 327 328 328 329 331 329 328 328 330 331 332 332 332 333 332 333 334 332 328 325 326 328 332 333 335 337 337 337 341 341 341 341 340 341 341 342 342 340 340 340 342 341 340 339 338 337 337 338 340 342 344 345 347 349 349 345 342 341 341
344 344 344 342 341 341 340 339 338 335 333 332 331 330 329 328 327 327 327 328 328 327 327 327 326 326 325 326 328 329 330 329 329 329 331 332 332 333 333 333 333 333 335 334 333 327 327 327 331 332 334 334 336 338 341 341 339 340 341 341 342 341 342 341 339 339 340 340 339 338 337 336 335 335 335 336 338 340 338 335 335 334 333 334 334
344 343 343 343 341 341 341 340 337 334 332 331 330 329 330 328 328 329 328 327 327 327 327 328 333 326 327 325 327 328 329 329 330 330 331 331 332 333 332 333 333 334 334 334 333 332 329 328 330 333 334 335 336 337 339 336 337 338 340 340 341 340 341 342 343 343 342 340 338 337 336 335 335 334 334 334 334 334 334 333 333 332 331 331 331
343 342 342 342 342 340 339 339 337 334 332 330 329 329 329 330 330 330 330 329 328 326 325 326 326 328 327 326 327 328 329 330 331 331 331 330 332 332 332 332 332 333 332 332 332 331 330 330 330 331 333 333 333 335 336 336 335 334 336 338 340 341 340 339 340 340 338 337 337 336 335 334 333 333 333 333 333 333 333 334 333 332 330 328 329
341 340 340 339 339 337 337 336 336 335 333 331 329 328 328 328 328 329 328 327 327 327 326 326 327 326 326 327 328 328 331 332 332 332 331 330 332 331 333 332 331 330 330 329 329 329 329 329 330 332 331 334 334 332 336 336 336 335 334 335 335 338 339 337 335 337 337 335 336 337 336 336 336 334 331 332 332 332 333 333 333 333 331 328 327
339 338 337 336 336 335 334 334 334 335 333 332 331 330 330 329 330 328 329 328 327 326 326 326 327 327 328 328 328 333 334 336 337 335 331 331 331 330 331 332 330 329 328 328 327 326 326 327 328 329 331 331 332 334 337 335 333 335 337 336 333 333 334 336 336 334 334 334 331 332 334 334 334 333 333 333 333 333 333 332 334 333 332 329 327
340 337 336 334 333 332 332 332 332 334 334 334 334 331 329 330 329 328 328 327 326 326 325 326 327 328 328 332 333 332 337 342 343 343 342 341 332 330 331 330 331 327 326 326 325 324 324 325 326 329 330 331 332 333 333 333 332 332 336 337 334 334 333 332 333 335 334 330 330 330 330 331 329 330 330 330 331 331 331 331 331 333 332 330 328
338 336 334 333 331 330 330 330 331 333 334 335 343 343 344 333 329 330 329 327 326 325 325 325 326 327 327 327 334 338 339 341 342 343 343 343 343 338 331 329 328 327 326 325 324 324 324 323 324 326 327 328 330 332 332 333 334 335 335 335 332 332 332 330 330 332 335 329 326 325 328 331 328 327 328 327 328 329 329 329 328 328 328 327 326
336 336 333 331 330 329 329 329 330 331 332 335 338 337 339 343 334 329 327 326 325 324 323 322 322 325 326 326 325 332 336 338 337 343 343 342 342 343 343 342 341 331 325 325 325 323 324 322 322 324 325 326 329 331 332 332 332 332 331 333 334 332 329 325 322 328 333 330 324 323 324 329 328 323 324 324 325 326 327 326 328 328 327 326 326
336 334 331 329 329 329 329 328 328 330 330 335 332 336 340 341 339 330 325 322 322 320 319 320 321 322 323 324 325 327 328 334 331 330 336 344 341 342 342 341 341 342 339 332 326 323 323 321 322 323 324 324 326 329 331 332 331 331 331 331 331 329 327 326 325 323 330 334 323 321 321 326 326 322 321 323 323 324 325 326 326 326 326 326 325
334 331 329 328 328 328 327 327 327 329 327 333 333 336 338 338 335 328 321 320 320 318 318 319 320 321 322 326 326 327 327 337 334 327 327 332 344 342 341 341 341 340 338 338 337 332 323 323 322 323 324 324 326 329 332 333 332 330 330 330 330 329 328 327 327 329 331 337 324 320 318 322 321 318 317 319 321 321 322 324 325 325 325 324 324
331 329 328 328 327 327 327 327 327 327 327 334 333 335 336 334 331 328 320 320 319 319 319 320 321 321 322 323 323 325 325 327 329 329 330 329 328 329 329 328 328 334 337 338 337 337 335 327 324 324 326 328 327 328 333 333 331 330 330 330 330 330 330 330 332 332 334 335 324 321 318 321 321 315 314 315 318 319 319 320 321 323 323 322 322
329 327 327 326 327 329 327 325 325 326 329 334 332 334 334 331 332 330 322 323 321 319 320 321 321 321 321 324 323 322 323 327 334 333 330 329 328 330 329 329 328 327 327 326 327 328 330 328 327 326 328 330 329 329 330 332 333 332 332 331 331 332 333 333 333 333 332 335 331 324 317 320 321 314 315 315 315 314 316 318 320 321 322 321 321
330 329 328 328 328 326 325 324 323 321 325 330 331 332 331 330 332 326 322 321 321 320 321 321 322 322 322 321 321 322 323 326 337 339 337 331 327 326 326 326 326 328 331 339 335 337 335 328 329 330 330 333 333 333 335 333 334 336 339 336 333 330 329 327 326 328 329 333 332 326 322 321 323 316 317 319 315 313 313 314 319 321 320 320 320
330 328 328 328 327 325 325 322 321 321 324 326 325 328 328 328 330 322 323 323 321 320 319 321 321 322 324 322 320 321 323 325 333 330 335 336 326 325 324 324 326 327 329 334 339 339 336 333 333 333 333 333 332 330 328 330 333 333 331 330 326 326 327 325 325 326 326 329 333 330 326 325 325 321 319 319 318 316 313 314 315 319 319 319 319
329 328 327 326 325 326 325 322 322 321 322 328 324 324 326 329 330 323 323 323 321 321 320 320 321 320 326 334 331 321 321 324 327 328 331 334 324 323 322 323 323 322 323 326 327 329 334 334 333 332 332 333 334 335 334 332 332 335 330 327 327 327 326 326 325 324 324 329 329 332 324 323 326 323 319 319 324 321 318 318 319 317 320 317 317
330 329 329 325 325 326 325 323 334 324 322 327 321 322 323 327 333 327 327 324 322 319 320 320 319 320 319 330 332 329 326 325 320 323 328 330 322 321 320 321 321 319 320 321 323 323 324 323 323 326 327 328 328 328 333 337 337 337 332 329 328 328 326 325 326 324 324 326 330 332 325 324 322 324 320 316 317 318 321 322 322 318 317 317 318
Wind_Speed
5 6 5 6 6 6 5 6 6 6 5 6 6 7 6 6 6 6 5 5 5 6 6 6 6 5 6 6 5 5 6 7 8 8 7 7 7 8 14 15 14 14 14 16 17 17 18 19 18 19 19 18 18 18 18 18 17 17 17 17 16 16 16 16 17 17 16 16 16 15 15 15 15 15 15 16 15 15 15 15 15 15 15 16 16
6 5 5 6 6 6 6 6 7 6 5 7 6 6 6 5 6 5 6 6 6 7 6 6 6 5 5 5 5 5 6 5 5 6 6 6 6 7 12 14 15 14 14 15 16 16 18 19 19 19 19 19 19 19 18 18 18 18 18 18 18 17 16 17 17 17 16 16 16 16 16 16 15 15 15 16 16 16 16 16 15 15 15 15 16
6 6 5 6 6 6 6 6 5 6 6 6 4 5 5 5 6 6 6 6 6 6 5 6 6 5 4 4 5 5 6 5 4 5 5 6 6 4 6 13 14 12 14 15 15 16 18 20 19 18 19 20 19 19 19 18 18 18 17 18 18 18 17 17 17 17 17 17 17 17 17 17 16 15 16 16 16 16 16 16 16 15 15 15 15
6 5 6 6 7 5 6 5 5 3 2 2 2 4 5 6 6 6 6 5 6 6 6 5 6 6 4 5 6 6 5 5 4 4 5 5 5 5 5 7 12 13 14 14 14 16 17 19 18 18 18 18 19 20 20 19 19 18 18 19 19 18 18 17 17 16 17 17 17 17 17 17 17 17 16 16 16 17 16 16 16 16 16 16 15
6 6 8 6 4 4 3 2 2 4 3 2 3 3 3 4 6 6 6 5 6 7 5 4 5 6 4 5 5 6 5 4 4 4 6 5 5 5 5 5 4 9 13 14 14 14 16 19 18 17 17 17 19 20 20 20 19 19 18 18 18 18 17 18 17 17 17 17 17 17 17 17 17 17 17 17 17 17 16 17 16 16 16 16 16
6 6 5 2 3 2 2 4 3 3 3 3 4 3 5 5 6 4 5 5 6 7 6 6 6 5 5 5 5 6 4 4 4 5 5 6 3 3 4 3 3 3 4 12 16 14 16 18 19 19 18 18 19 20 20 20 20 20 19 18 19 19 17 18 18 18 18 17 17 17 17 17 18 18 17 17 17 18 17 17 17 17 17 16 16
6 4 1 0 1 2 3 5 4 3 2 4 4 5 5 6 5 5 5 5 5 6 6 6 5 6 5 4 5 6 3 4 5 6 6 4 2 4 4 3 3 3 4 5 10 15 15 15 17 18 19 19 19 19 20 21 21 20 20 19 18 19 19 19 18 17 18 18 17 17 17 17 18 18 18 17 17 17 17 18 18 18 17 17 17
4 3 2 1 0 2 4 5 4 2 4 4 3 5 5 5 6 4 4 6 4 5 5 4 4 4 3 3 4 4 4 4 6 6 6 3 4 4 4 4 4 5 5 6 6 7 15 15 16 17 18 18 18 19 20 20 20 22 21 20 19 19 19 19 18 18 18 18 19 18 18 18 18 18 18 19 18 18 17 17 17 18 18 18 18
4 3 2 2 2 2 5 5 3 4 4 4 4 5 5 5 5 4 4 4 4 5 6 5 5 5 3 4 5 5 5 5 6 6 4 3 5 4 4 5 5 6 5 6 6 6 10 16 15 15 17 18 17 18 19 20 21 21 22 21 20 19 20 20 19 20 18 19 19 19 19 18 19 18 19 19 19 19 18 17 17 17 17 18 18
3 3 3 3 2 2 4 5 4 3 5 4 6 5 4 5 5 4 2 3 4 5 6 6 6 6 6 6 4 4 5 5 5 5 5 5 4 5 6 5 5 6 6 6 7 7 6 10 15 15 17 17 18 19 20 20 21 21 21 22 21 21 21 21 20 19 19 19 19 18 18 19 20 19 19 19 19 20 19 19 18 18 19 18 18
4 4 4 3 4 4 4 5 4 4 4 5 5 6 5 3 4 6 5 4 4 5 5 5 6 6 7 8 7 5 4 4 4 5 5 6 5 6 5 6 5 5 6 7 6 6 6 6 5 6 9 19 18 19 20 21 20 20 21 21 21 20 20 21 20 20 20 20 20 19 19 19 20 21 20 20 19 19 19 19 20 20 19 20 19
4 4 4 4 4 5 4 5 4 3 4 4 5 5 6 6 7 5 7 6 4 5 3 4 4 6 7 7 6 5 6 5 5 5 5 5 5 4 5 5 5 6 6 7 6 6 6 6 6 6 6 11 19 19 20 20 21 21 21 22 22 21 21 21 21 21 21 20 21 20 19 20 21 21 21 21 20 19 20 20 20 20 19 20 20
4 4 5 5 4 4 4 5 4 3 3 4 4 6 5 4 5 4 5 5 5 4 2 1 3 7 6 5 6 5 5 6 6 6 6 5 3 2 2 3 4 5 6 6 6 6 6 6 6 6 7 6 9 18 21 20 20 21 21 21 22 22 22 22 22 21 21 22 22 20 20 20 20 21 22 20 20 20 20 21 21 21 20 20 20
5 5 5 5 5 5 5 6 5 4 4 4 4 4 5 5 4 5 2 3 3 4 5 3 4 3 5 5 6 8 7 4 5 5 4 4 3 3 3 2 3 5 5 5 6 7 7 6 5 6 6 6 6 5 9 12 15 21 21 21 22 23 23 23 22 22 22 20 21 20 19 20 20 20 20 19 19 19 20 21 22 22 21 21 20
5 5 5 5 5 4 6 6 5 4 4 6 5 5 4 5 4 4 7 2 2 4 5 0 5 5 4 3 5 3 4 4 3 3 3 3 3 4 5 5 4 3 5 5 6 5 6 5 5 5 5 5 5 5 6 8 11 17 22 21 21 22 23 23 22 22 22 21 21 21 20 19 19 19 19 19 20 20 21 21 22 22 21 21 20
6 6 5 4 4 6 6 5 6 4 4 5 5 5 5 6 5 6 3 6 2 3 3 2 2 4 5 2 4 2 7 3 3 5 3 4 5 5 4 5 6 4 2 1 5 5 5 5 5 5 5 6 4 3 5 6 11 14 18 20 21 21 22 23 23 23 23 22 20 21 21 21 21 21 20 20 19 21 21 20 21 21 21 21 20
6 6 5 6 5 5 6 6 5 5 4 5 5 6 5 4 6 6 3 2 5 2 3 4 4 2 3 4 4 3 2 3 5 6 3 4 5 7 5 6 7 7 5 3 4 3 2 3 4 4 6 5 5 5 5 4 1 3 8 13 15 16 17 19 22 22 22 22 20 21 21 21 21 21 21 21 20 20 21 20 21 19 21 20 19
6 6 6 5 6 6 5 6 6 7 6 5 4 5 5 5 5 3 2 2 2 3 3 4 5 5 1 4 1 3 5 5 3 4 2 4 6 4 5 6 5 5 6 3 4 4 4 4 4 2 2 3 1 4 4 5 3 3 3 6 13 15 16 18 20 22 22 21 21 21 21 21 20 21 21 21 21 21 21 21 21 20 20 20 19
6 6 7 6 5 5 5 6 7 6 4 3 4 4 5 5 4 5 5 5 2 2 4 4 4 3 7 5 2 3 7 1 3 4 7 2 3 4 7 6 6 7 7 2 4 5 6 4 2 0 7 4 6 8 8 6 4 3 5 7 8 9 10 16 19 21 22 21 21 21 21 20 20 20 20 21 21 21 21 20 20 20 20 20 20
7 7 7 5 5 6 5 6 6 5 3 3 4 5 5 3 4 4 4 5 3 4 3 5 5 4 6 6 6 8 5 3 3 4 5 6 5 3 2 7 9 6 5 6 4 3 4 5 4 2 3 3 6 4 1 4 4 4 4 6 8 7 7 10 16 20 22 22 21 20 20 20 20 20 20 21 21 21 21 21 21 21 21 20 20
7 7 5 5 5 6 5 6 5 1 1 3 3 3 4 4 5 5 5 5 5 4 5 6 5 6 5 6 5 7 6 6 7 7 3 4 4 4 6 6 6 6 6 6 6 6 6 6 3 3 2 4 6 1 4 5 4 3 4 7 8 10 10 9 13 19 21 21 21 20 20 20 20 20 20 20 21 21 21 21 21 21 20 20 19
7 6 5 5 5 5 4 4 1 1 2 2 4 4 3 4 6 6 6 6 5 6 6 5 5 4 5 4 6 6 6 6 6 7 3 2 5 6 6 6 6 6 7 7 8 8 8 6 4 3 2 0 4 2 6 7 5 3 5 8 9 10 11 10 10 14 18 20 20 19 20 19 19 19 19 19 19 20 21 21 21 20 20 20 20
6 6 5 5 5 4 1 1 1 2 4 5 4 3 3 5 6 7 8 7 6 6 6 5 5 6 7 6 6 6 4 4 4 4 2 2 4 4 5 4 5 6 6 8 7 5 6 6 6 5 3 3 3 5 6 6 3 5 8 8 8 6 7 8 8 10 14 17 17 18 18 18 18 17 17 18 18 19 19 20 21 20 19 20 20
5 4 5 6 4 3 1 2 5 4 6 5 3 2 4 5 7 7 6 6 6 6 6 7 7 6 6 6 6 5 5 5 4 4 4 4 3 4 5 4 3 3 5 6 6 4 5 5 5 5 4 2 2 1 1 4 6 8 7 7 7 7 6 8 14 19 23 20 14 15 15 14 14 14 15 16 17 18 18 19 19 19 19 20 18
6 6 6 6 6 3 4 5 5 6 5 4 3 5 6 7 6 7 6 6 7 7 7 7 7 6 5 4 4 5 4 4 4 4 4 3 2 3 3 2 2 4 3 4 3 3 2 4 4 5 5 4 3 3 3 3 4 6 8 4 10 4 12 10 10 11 5 9 12 12 12 12 12 11 12 13 14 15 16 17 18 18 19 17 16
6 6 6 3 2 5 6 6 6 5 4 4 6 6 6 6 5 6 8 6 7 7 7 6 6 6 4 5 4 5 4 4 4 4 5 5 5 4 3 3 2 2 3 3 4 4 5 5 4 5 6 5 4 3 3 3 3 7 7 4 4 8 3 8 11 10 9 4 8 11 12 12 12 13 11 11 13 15 15 16 16 18 19 16 15
4 1 3 5 5 6 7 7 6 5 4 5 6 6 6 6 7 7 7 6 7 7 6 6 6 6 6 5 4 5 5 5 5 5 4 4 3 3 3 5 4 3 4 2 3 2 4 4 4 4 5 6 5 5 4 3 3 7 9 5 4 8 12 18 16 12 13 14 13 13 11 9 9 13 14 10 11 12 14 15 16 16 13 11 8
2 3 4 7 7 8 8 7 6 6 6 6 7 7 6 7 8 7 7 5 6 6 5 6 6 6 5 5 5 5 5 5 5 4 4 4 4 4 3 2 2 4 3 3 3 2 4 4 4 4 5 6 6 5 6 6 4 5 6 4 3 5 13 13 10 9 12 12 11 8 6 8 10 13 14 12 9 9 11 11 12 11 11 12 15
4 5 6 5 7 8 8 7 6 5 6 7 8 7 7 8 7 7 6 5 5 5 5 6 5 4 5 4 4 5 5 5 5 5 5 5 5 5 4 3 2 1 1 3 2 2 3 4 2 4 6 6 6 5 5 5 6 7 2 5 4 0 5 9 10 11 10 9 7 6 8 10 11 12 12 15 17 10 12 13 7 4 8 9 13
6 7 7 8 7 8 7 7 6 6 8 7 7 7 8 7 7 6 4 4 5 5 5 5 5 4 4 5 4 5 5 5 5 5 5 5 5 5 4 4 3 2 1 2 4 1 3 4 1 3 5 6 6 5 4 4 7 5 2 4 5 3 6 8 8 9 6 6 5 3 5 6 6 6 4 2 7 9 9 10 8 10 11 12 17
7 7 8 8 7 7 7 7 7 7 7 7 7 8 7 7 6 6 4 4 4 5 5 4 4 4 5 5 5 5 5 4 5 5 4 5 5 4 4 4 4 2 2 0 1 3 1 3 3 4 3 4 5 4 5 5 7 6 2 2 3 7 7 6 7 8 5 4 4 6 6 6 7 7 3 2 4 5 6 7 7 10 9 14 21
7 7 7 7 7 7 7 7 7 7 7 8 8 8 7 6 6 5 3 3 4 4 4 4 4 4 4 5 5 5 5 4 5 5 5 4 4 5 4 4 4 3 2 0 0 4 3 2 4 5 6 5 5 7 6 6 8 12 7 5 4 7 5 4 6 7 7 7 9 10 11 11 10 8 5 4 4 5 4 5 8 11 12 8 14
6 8 8 7 7 7 8 7 7 7 7 8 6 6 6 6 5 3 3 3 4 3 3 4 4 3 4 4 5 5 4 5 5 5 6 5 5 5 4 4 4 3 3 2 2 4 4 2 3 4 5 5 6 7 6 6 7 7 9 9 9 7 7 6 6 8 9 10 13 15 15 14 14 13 13 13 11 8 5 5 8 8 10 11 14
7 8 8 7 7 8 8 8 7 7 8 7 6 6 6 6 4 2 3 3 3 3 3 3 4 3 3 5 6 6 5 4 5 6 6 6 6 6 5 5 5 5 3 2 2 1 4 5 6 5 5 6 5 7 6 6 6 6 9 8 7 7 7 6 7 9 17 17 17 17 15 16 17 18 17 15 13 10 6 6 10 11 14 13 14
6 7 8 8 8 8 8 7 7 7 7 6 5 5 5 4 3 1 2 2 3 2 3 3 3 3 4 4 5 5 5 6 6 5 5 6 5 6 6 5 5 5 4 2 1 2 3 4 4 5 6 6 6 7 6 5 5 6 8 8 7 7 7 8 8 8 14 16 18 18 18 19 19 18 17 17 15 14 15 13 11 10 10 6 0
8 6 7 8 8 8 8 7 7 7 7 6 5 4 5 4 2 1 1 2 2 3 2 1 1 3 3 4 5 5 5 5 6 6 6 5 6 5 6 6 5 6 5 4 4 2 2 4 6 5 5 5 5 6 5 4 6 7 6 6 7 7 7 7 9 8 12 17 18 18 18 17 17 16 15 15 16 17 15 13 12 12 11 11 11
7 7 6 6 8 7 8 8 8 7 6 6 5 4 3 2 1 0 1 2 2 2 2 0 0 0 2 3 4 4 4 5 5 6 6 7 6 6 6 6 6 5 5 6 6 4 5 6 5 5 5 5 4 5 6 5 5 7 7 7 8 7 6 7 6 6 11 15 16 16 16 18 17 17 16 15 15 15 14 13 13 12 12 12 12
7 6 7 6 6 7 7 8 7 7 5 5 4 4 3 1 0 0 0 1 2 3 2 0 1 1 0 2 3 3 4 4 5 5 5 6 5 6 7 6 6 5 6 6 6 6 5 5 5 6 6 6 5 5 6 5 5 6 6 7 7 7 8 8 8 7 7 7 6 7 9 11 15 18 18 17 16 16 15 14 14 14 14 12 11
8 8 6 7 5 7 7 7 7 6 5 4 3 2 2 1 1 1 2 2 3 2 2 1 2 2 2 2 3 2 3 4 4 4 4 5 5 5 5 5 5 5 6 6 6 6 5 5 5 5 5 5 4 6 5 3 5 4 4 6 8 6 7 7 7 7 6 7 12 18 15 14 15 12 14 16 15 16 15 14 14 15 15 14 13
8 8 8 8 6 6 7 7 6 6 5 4 3 3 3 2 2 2 2 2 3 3 3 3 3 3 3 3 3 3 3 3 4 3 2 4 4 5 5 5 5 5 5 5 6 5 5 5 6 5 5 5 6 4 4 4 5 6 5 4 6 7 9 8 8 6 6 6 8 8 9 10 10 12 13 16 19 18 16 15 17 15 16 15 13
7 7 7 8 8 8 7 7 6 5 5 4 3 3 3 3 2 3 2 2 3 3 3 4 5 5 4 4 3 3 5 8 8 7 8 5 3 5 5 4 4 5 5 5 5 5 5 5 6 5 5 6 6 6 6 6 6 6 4 4 7 7 7 8 8 7 5 6 7 8 8 7 7 8 8 9 10 13 14 14 12 16 16 14 13
7 7 7 7 7 8 8 6 5 5 4 2 5 7 5 2 2 2 2 2 3 3 3 4 5 4 4 3 4 10 10 9 8 9 9 10 7 4 3 3 4 5 5 5 6 5 4 5 5 5 6 6 6 7 6 6 4 3 4 6 8 7 7 8 8 7 6 5 8 10 8 7 6 8 8 9 8 9 8 8 9 11 14 15 14
8 7 8 8 7 6 7 7 6 5 3 3 7 4 4 5 4 3 3 3 3 3 3 3 3 3 4 3 4 5 6 6 5 7 8 9 9 11 12 11 8 4 4 6 5 4 4 5 4 5 6 6 6 6 5 4 4 4 3 3 4 4 5 7 8 5 7 4 6 9 9 8 6 8 8 8 8 8 8 9 14 15 15 15 15
7 7 8 8 7 7 6 6 6 5 3 6 5 4 4 8 7 4 3 3 3 3 3 3 3 3 2 3 3 3 4 3 3 4 5 6 9 10 11 10 11 12 10 5 3 5 5 5 6 6 4 5 4 5 5 4 4 5 5 5 5 6 7 8 6 6 2 4 7 10 8 7 6 8 9 8 8 7 10 13 14 14 14 15 16
8 8 8 8 8 7 7 7 6 4 3 5 5 5 8 10 11 8 4 3 4 3 3 3 3 3 2 3 3 4 4 6 4 2 2 4 6 9 10 9 9 10 8 9 10 5 2 5 5 6 5 4 5 5 5 4 2 6 5 6 5 7 7 8 5 4 2 3 5 9 9 6 6 7 9 7 7 6 7 11 15 14 15 15 15
8 8 8 8 8 7 6 6 6 4 4 6 5 7 11 12 11 8 4 4 3 3 3 3 3 3 3 3 3 4 4 3 2 1 1 2 3 4 4 4 3 5 7 7 8 9 7 4 5 6 5 3 3 3 3 3 3 5 6 6 4 6 6 7 4 5 2 2 5 6 8 6 5 6 8 6 5 5 6 10 12 12 13 14 14
9 9 9 9 7 7 6 5 5 4 3 5 6 9 12 12 11 7 4 3 3 3 3 3 2 2 3 3 3 3 3 4 2 3 3 2 3 4 5 5 4 3 2 2 2 2 3 3 4 3 4 4 3 3 3 3 4 3 3 5 5 6 5 3 4 3 5 4 2 2 7 3 3 6 6 5 4 5 5 8 12 11 12 12 12
6 7 6 7 8 7 6 5 5 4 3 4 7 9 12 12 11 5 4 4 4 3 3 2 2 2 2 3 3 3 4 4 6 7 4 3 4 4 5 5 5 5 3 1 1 2 2 2 3 4 3 4 5 4 4 4 3 3 4 4 4 4 6 6 6 4 5 5 4 4 4 3 2 5 3 3 3 6 5 5 9 11 10 9 9
9 8 8 7 7 8 7 6 6 5 3 4 7 9 11 12 8 5 4 4 4 4 2 2 2 2 2 3 3 3 4 4 5 7 6 6 4 5 4 5 5 5 5 3 4 6 7 7 9 10 10 10 10 12 12 10 5 3 4 6 4 2 5 6 5 5 4 2 3 3 4 4 2 2 4 4 4 5 6 6 5 7 9 8 8
9 8 7 8 7 7 7 7 6 6 4 4 7 8 10 10 8 6 5 5 3 3 2 2 3 3 3 8 5 3 4 3 6 8 7 5 5 4 5 7 6 4 4 4 4 5 9 9 11 11 11 11 11 11 12 11 10 5 4 5 0 3 5 3 4 2 2 3 3 2 4 3 3 1 3 1 4 3 5 4 5 4 6 6 8
8 8 7 8 7 6 6 6 9 7 4 4 6 7 9 10 7 6 6 5 4 3 2 2 2 2 3 4 7 5 3 3 8 8 7 5 5 4 4 6 4 3 2 2 4 5 5 6 6 7 8 9 7 6 7 13 11 7 4 4 2 5 5 4 4 3 4 2 2 2 3 1 2 0 2 2 4 2 1 3 3 4 4 3 4
Wind_Direction
237 240 234 242 250 250 248 251 248 249 243 245 239 248 249 242 244 252 258 262 260 264 258 258 251 244 240 253 244 233 225 209 206 217 221 227 237 238 234 233 228 218 208 205 207 208 209 211 207 204 205 208 212 213 210 209 207 206 205 205 206 208 210 209 209 209 209 208 210 210 212 213 212 213 214 216 214 212 213 212 209 208 208 210 209
236 249 245 246 243 246 245 250 249 250 242 243 236 234 244 248 253 257 258 257 255 259 258 264 260 244 237 240 233 230 235 228 213 215 225 226 237 244 241 235 232 222 208 204 205 209 212 211 208 203 203 206 211 213 213 213 210 209 208 208 207 208 208 212 210 210 211 212 210 211 212 214 215 214 214 216 218 216 216 215 214 212 211 212 215
240 243 244 252 248 246 248 251 252 248 233 237 241 234 246 242 247 251 250 255 261 265 261 264 266 264 243 233 243 238 233 239 229 225 234 233 230 236 247 245 232 213 211 206 202 209 214 215 210 205 202 204 207 213 214 214 214 214 209 210 209 208 209 210 213 212 211 212 212 212 213 214 215 217 217 216 219 219 218 217 216 215 216 215 216
241 257 255 243 243 241 249 235 223 240 230 240 250 237 240 252 259 263 263 264 274 277 266 260 276 271 238 237 240 236 239 231 230 246 251 243 227 238 243 248 243 222 210 204 200 204 211 214 211 209 206 204 206 210 213 215 216 217 213 212 212 211 210 209 210 212 214 214 213 212 213 213 214 215 218 218 219 221 219 219 217 216 216 218 219
240 237 261 231 212 222 192 206 231 249 268 265 260 253 271 277 273 264 273 274 274 276 278 274 271 277 261 241 228 245 238 235 243 251 254 253 235 231 233 235 246 234 219 208 204 208 212 216 212 211 211 209 209 211 213 215 216 218 218 216 213 215 214 214 210 209 211 214 217 215 214 216 215 215 217 220 220 220 219 221 223 219 218 218 221
243 239 223 205 176 162 179 249 250 235 249 264 274 297 295 282 270 273 270 280 283 284 296 300 292 282 271 231 213 242 248 266 264 256 259 250 238 230 238 245 239 241 232 219 212 210 212 216 218 218 216 215 213 213 215 216 217 218 219 217 216 213 215 216 216 212 210 209 213 217 217 218 217 216 216 219 221 222 219 219 220 224 220 220 221
231 247 277 129 136 195 244 242 263 274 274 269 269 280 278 280 286 292 286 281 278 285 284 278 279 285 275 233 234 250 271 258 262 260 261 265 261 239 223 219 208 214 217 216 222 218 216 214 218 220 221 220 218 217 217 218 219 219 220 219 218 219 216 216 217 216 214 213 211 213 218 218 219 218 217 219 220 222 224 220 219 220 222 222 221
240 215 226 183 146 227 249 267 261 270 266 274 289 280 274 277 278 268 281 282 288 281 261 263 266 268 263 258 251 260 262 257 255 256 253 244 237 230 222 213 204 210 211 208 213 228 224 219 218 219 220 220 221 221 220 220 221 222 221 221 219 218 220 218 217 213 215 215 215 214 215 217 219 219 220 219 219 221 223 225 226 223 220 221 221
235 236 232 233 220 249 255 257 247 248 269 267 270 265 269 275 276 276 237 259 286 301 315 324 317 313 292 206 235 240 245 237 254 256 247 240 255 239 217 218 210 215 221 215 212 220 232 227 219 218 220 220 218 218 221 222 223 223 223 222 221 219 219 221 217 217 215 216 217 220 219 217 218 221 219 219 219 220 220 222 225 227 227 225 224
221 249 239 259 260 243 270 267 271 267 266 281 276 285 276 240 267 272 252 284 300 303 308 312 312 311 311 303 268 240 248 252 258 263 253 248 226 231 224 218 201 213 219 225 218 219 222 232 228 222 222 222 221 219 218 220 222 224 225 225 225 223 222 220 219 217 215 217 217 214 220 221 221 219 220 221 222 221 220 220 222 225 226 227 227
218 230 236 269 279 268 264 275 271 260 260 274 281 279 281 288 281 298 302 265 259 277 277 295 304 309 306 297 300 286 263 257 255 263 254 251 241 219 218 227 216 210 219 225 227 214 221 223 226 222 223 223 220 221 219 218 218 220 223 225 225 226 226 224 219 218 216 215 216 214 217 220 224 222 220 220 221 223 223 223 223 224 226 226 226
219 217 225 237 251 264 276 282 289 283 271 277 287 302 302 304 298 286 301 310 282 268 284 297 297 293 288 293 291 286 287 275 273 256 243 234 228 225 219 218 212 222 219 224 225 224 216 221 220 223 221 224 222 219 219 220 219 218 219 221 223 225 228 229 224 221 220 215 217 216 217 219 222 224 222 220 220 219 221 223 226 226 225 227 226
218 219 229 242 248 271 285 287 287 269 271 281 284 289 291 278 279 293 291 301 306 303 307 233 316 303 304 309 306 286 273 272 264 273 270 272 286 281 259 206 217 226 233 220 221 227 223 220 224 221 220 221 226 222 220 220 222 221 219 219 220 221 223 226 229 226 222 219 217 213 215 215 217 224 226 224 222 220 218 220 223 225 226 226 226
210 211 219 228 255 266 272 276 286 290 281 285 288 289 304 300 289 303 262 269 281 309 325 15 313 270 308 318 307 302 281 257 263 263 271 287 303 315 308 246 224 231 240 228 228 221 225 221 224 228 223 221 225 230 225 222 222 222 220 218 218 220 221 222 225 229 227 224 222 218 211 212 216 218 222 222 224 222 222 220 221 222 224 225 226
212 201 213 230 241 253 263 270 282 279 293 295 289 305 304 301 302 267 298 302 276 298 303 233 267 298 289 296 289 334 330 343 317 301 303 301 314 321 320 313 295 238 227 230 233 232 231 224 219 229 235 232 232 236 232 222 220 217 218 218 216 217 219 220 222 223 227 228 226 223 215 212 215 218 217 217 220 223 224 224 222 222 221 221 223
209 205 215 227 224 239 256 272 272 268 260 275 299 301 312 314 308 289 251 292 341 303 313 307 228 332 330 268 266 262 308 295 328 306 301 330 339 319 321 319 324 329 347 247 250 236 227 222 219 226 234 230 233 247 249 235 228 221 221 219 219 218 218 219 219 221 223 226 226 225 223 218 216 217 218 219 215 220 223 222 224 222 220 221 221
207 209 212 222 227 233 243 254 265 269 255 261 278 282 293 303 290 300 290 229 300 294 318 340 318 230 231 320 326 353 264 296 334 286 341 355 328 314 320 330 327 323 328 338 334 323 292 246 241 237 236 219 205 214 231 272 263 206 219 225 228 229 228 225 223 223 222 223 223 225 224 224 222 221 220 221 220 219 220 220 223 221 224 223 223
208 216 215 219 227 232 240 249 260 264 256 260 279 304 312 306 306 322 331 222 230 324 309 315 324 327 292 197 191 259 292 294 322 299 303 283 274 320 327 317 319 331 338 8 350 314 326 314 13 280 212 240 276 277 220 186 185 201 187 188 202 217 222 225 226 226 224 223 223 223 222 223 223 223 223 222 222 221 221 220 222 222 224 224 223
213 220 222 223 225 235 241 246 251 255 269 292 300 309 311 319 336 12 360 344 29 357 331 332 331 357 352 347 304 214 200 248 286 297 310 330 16 338 310 325 350 343 339 34 301 320 312 323 144 195 70 63 47 24 16 356 328 270 230 232 222 226 232 225 225 226 226 224 223 223 223 223 224 223 222 222 222 221 221 221 222 222 223 223 224
212 221 226 228 227 232 235 244 248 266 329 330 311 302 327 3 10 12 10 21 27 27 14 11 16 357 357 7 357 358 339 262 268 283 289 305 314 307 317 354 339 338 336 334 319 284 269 239 211 154 142 112 101 89 265 257 230 256 248 260 276 269 260 254 234 228 228 227 225 223 224 224 224 223 223 223 224 224 224 224 223 222 221 222 225
220 226 228 224 226 224 226 236 248 346 294 289 290 352 14 20 43 44 41 40 30 30 44 25 28 17 360 6 5 7 357 12 19 7 339 314 301 338 339 343 333 330 337 328 324 319 310 294 296 130 145 137 109 118 260 250 239 232 263 266 265 257 250 257 242 230 227 227 225 224 224 225 225 225 225 224 224 224 224 225 225 225 223 222 220
235 234 247 247 235 231 229 252 325 304 311 8 30 31 24 53 59 57 47 46 27 35 45 43 40 27 32 2 23 1 19 7 13 2 352 4 330 337 346 343 344 320 324 340 336 339 344 353 23 101 96 184 99 166 235 252 236 235 254 252 254 252 248 252 256 232 229 229 229 226 224 224 225 226 227 227 226 225 224 223 224 224 225 224 223
233 238 241 247 250 249 297 285 242 61 61 52 46 45 49 61 61 56 49 44 34 36 40 50 41 32 28 25 25 35 24 18 351 351 352 334 332 330 327 332 310 316 319 331 333 7 10 22 17 20 14 2 122 186 251 271 285 267 247 270 276 275 274 266 257 245 228 228 230 231 226 224 225 228 230 230 230 229 228 226 225 223 222 224 223
238 252 254 250 250 227 127 72 85 77 68 68 57 68 65 63 58 52 49 43 36 36 41 49 39 33 30 25 34 30 24 11 342 341 349 328 311 305 313 318 317 299 296 324 327 18 16 18 18 20 12 4 12 75 195 278 298 280 277 288 297 292 310 12 30 25 10 349 295 252 239 231 229 232 233 235 235 234 231 229 227 225 223 225 223
243 235 240 231 226 161 112 117 94 82 82 79 76 65 63 63 60 60 55 49 41 44 50 50 44 40 30 29 37 29 18 340 342 339 331 323 317 335 298 292 286 308 302 355 331 320 23 11 24 20 15 360 13 360 340 305 290 311 308 285 283 330 73 72 68 71 43 341 351 348 322 306 285 253 244 243 244 242 239 235 233 230 229 224 225
210 214 233 249 142 130 121 95 89 91 93 89 75 66 67 69 65 62 57 49 50 51 52 53 46 42 36 32 28 20 360 348 343 354 355 357 358 355 314 320 324 317 303 349 322 357 335 350 7 12 15 6 356 349 331 309 304 312 349 34 77 115 92 90 87 96 131 119 44 35 28 23 344 312 283 267 255 249 243 240 237 239 239 234 229
221 245 67 88 91 91 84 87 86 82 75 76 75 70 67 67 57 56 57 50 53 51 46 44 42 31 30 23 10 13 356 350 349 354 348 358 346 333 357 10 351 343 344 318 320 10 343 305 337 5 13 3 354 346 330 308 319 12 61 60 53 81 82 76 70 54 53 57 47 40 47 48 21 354 320 304 288 276 271 266 264 258 257 257 235
66 101 111 108 109 96 90 87 84 80 76 76 74 69 61 63 58 56 56 48 54 50 40 40 35 26 21 10 14 358 351 350 347 346 352 347 345 346 2 44 70 357 323 336 340 304 344 341 320 344 5 2 345 337 345 356 337 16 81 89 58 72 94 94 96 95 84 70 62 57 27 34 47 47 10 347 332 330 329 324 326 327 35 13 30
106 122 119 97 96 100 98 96 90 90 82 75 75 72 67 65 67 63 60 49 54 43 36 35 24 16 12 9 2 354 355 349 354 3 1 3 360 356 2 11 333 136 317 336 297 325 321 339 340 307 355 348 346 340 353 3 356 29 82 119 114 75 113 112 101 80 77 68 73 55 35 39 35 42 36 354 336 6 27 46 88 147 166 187 153
137 129 119 111 104 108 108 100 94 83 78 75 76 74 72 72 71 69 63 56 49 34 27 27 16 7 9 8 5 5 352 359 358 353 1 4 4 358 0 356 19 34 311 350 296 298 308 317 304 312 335 342 347 345 4 355 352 35 54 139 137 159 138 124 106 102 87 94 109 152 73 60 64 65 57 315 312 349 21 50 118 175 184 191 172
122 122 118 111 108 102 99 98 92 84 81 77 73 71 74 77 69 65 46 47 48 39 19 20 11 18 11 12 4 5 357 352 357 358 353 3 357 346 347 359 6 26 339 238 341 286 293 306 311 327 325 325 336 340 3 3 7 27 40 133 115 154 134 125 123 129 124 93 77 58 57 41 20 11 2 319 323 342 22 50 115 153 161 184 178
107 108 105 104 102 101 98 95 91 87 82 75 76 78 77 73 72 67 42 45 45 37 21 12 19 19 17 14 2 360 351 356 0 355 346 342 347 348 346 351 350 356 347 44 233 281 294 288 315 315 341 334 349 5 2 9 19 30 35 26 95 91 41 39 45 66 57 63 51 39 39 43 46 34 34 36 9 15 31 87 126 127 135 180 207
102 100 102 104 103 101 100 97 93 90 81 80 80 82 79 78 70 67 47 48 48 28 29 18 13 15 13 12 360 354 352 0 349 348 354 349 349 350 344 350 345 340 6 339 330 315 306 310 331 334 335 348 8 4 16 21 27 33 44 56 60 64 62 47 47 61 71 60 51 47 48 47 47 48 48 47 46 44 42 130 129 112 127 167 206
107 109 107 105 102 104 101 95 93 86 86 87 86 84 87 86 73 52 52 41 39 29 29 27 9 4 8 17 3 350 351 352 351 355 351 351 355 351 356 355 351 343 354 15 311 294 317 324 356 354 358 6 21 9 25 29 32 43 54 56 57 58 62 61 56 54 59 63 60 55 48 46 46 48 48 47 46 42 42 129 135 149 162 190 211
104 106 110 107 105 103 98 98 96 92 92 93 90 95 96 95 91 47 28 51 54 41 40 29 9 357 21 15 360 348 351 360 357 347 349 355 355 2 360 0 2 358 354 10 346 315 342 342 347 360 5 357 26 2 8 31 44 55 66 56 62 63 62 65 69 70 61 64 60 55 52 50 49 48 49 51 49 47 42 49 56 48 49 65 143
107 100 106 112 110 104 104 98 93 100 98 97 99 103 110 109 113 96 30 48 50 59 79 67 9 15 20 18 355 353 354 6 355 353 354 358 3 0 3 359 6 6 3 7 24 9 348 15 8 9 349 8 9 13 9 31 47 54 65 75 61 61 65 77 79 75 68 65 60 58 57 56 56 54 48 45 51 57 55 53 54 55 54 53 50
110 115 111 108 106 108 107 106 106 105 111 112 113 109 106 122 135 131 59 34 48 69 81 65 145 53 15 9 352 1 9 10 358 359 352 2 0 4 8 2 7 7 15 24 20 21 28 29 5 7 0 13 6 20 20 28 40 55 53 62 71 75 69 66 70 79 74 66 61 58 57 58 56 55 51 48 48 48 51 51 49 51 53 52 56
119 117 113 105 113 108 107 105 108 113 116 120 121 131 135 112 75 36 13 54 71 72 61 354 252 261 325 342 360 18 20 20 354 347 350 359 360 10 9 6 5 11 25 21 21 20 28 27 23 14 18 16 3 23 12 23 46 64 65 63 67 69 73 64 54 53 48 51 44 45 51 53 53 54 56 53 49 49 48 48 47 46 47 52 61
124 117 110 111 108 111 106 102 103 111 115 112 109 95 87 85 104 79 71 63 43 45 34 2 346 325 319 325 357 359 23 20 1 343 343 355 6 15 14 11 6 25 27 23 17 23 24 22 21 24 14 11 20 21 3 18 60 62 71 80 72 62 65 67 65 52 45 54 58 58 58 60 60 58 55 55 53 52 52 54 53 52 51 49 52
121 123 125 121 114 106 104 98 97 98 96 89 82 76 66 49 41 69 78 79 64 42 26 24 19 5 354 9 21 2 11 31 1 325 348 13 6 31 14 18 16 26 31 20 24 22 22 24 27 15 12 14 15 13 7 27 51 50 41 72 85 79 69 58 50 56 39 51 58 52 41 44 47 49 50 54 51 49 49 48 50 51 52 56 55
122 124 124 121 116 106 96 96 96 95 96 98 103 97 81 54 54 90 87 85 77 59 33 23 24 28 22 28 33 29 32 45 38 42 64 65 48 52 23 23 21 27 25 29 26 26 22 32 28 11 22 27 20 17 21 29 48 56 46 63 79 75 75 68 53 42 33 54 64 56 42 26 41 46 43 45 41 41 43 42 42 48 54 59 62
125 125 118 112 111 115 112 104 98 96 92 90 100 96 95 109 85 93 81 60 52 49 48 35 28 33 34 30 12 30 30 34 41 37 50 68 81 94 92 61 43 32 31 33 29 16 24 33 23 8 29 28 16 14 21 23 22 38 61 77 87 88 80 74 62 39 21 32 66 56 36 22 31 52 44 49 30 34 35 38 50 54 52 53 53
131 128 120 117 114 114 116 119 114 103 101 105 91 62 59 113 113 92 80 65 56 54 50 48 39 31 25 19 14 9 5 16 17 36 35 70 69 66 62 62 64 67 41 42 32 21 22 31 10 24 25 22 14 2 13 15 28 41 45 36 65 69 73 79 75 51 16 17 65 69 42 14 19 53 45 41 32 32 39 40 51 59 61 61 61
132 124 120 121 121 121 118 117 116 119 117 105 91 86 88 113 108 97 84 79 64 55 47 51 43 46 28 12 4 1 342 14 32 2 341 4 71 69 66 60 55 53 58 61 48 31 22 28 31 19 12 13 360 11 358 14 29 58 55 66 67 82 84 81 78 73 344 353 71 74 56 8 18 53 50 32 22 27 34 42 42 50 58 61 62
130 127 130 127 128 128 129 130 128 127 119 119 115 107 110 109 109 101 92 83 78 65 56 59 57 48 30 18 358 356 341 4 17 351 346 342 21 50 49 39 46 58 43 54 59 62 59 51 44 30 16 341 8 7 358 350 357 84 73 69 67 78 87 89 88 105 47 356 72 74 65 19 20 49 56 27 28 25 27 35 47 55 58 59 61
133 132 132 131 132 135 140 136 129 126 122 121 117 119 120 118 116 109 106 97 90 80 72 64 57 47 29 18 4 355 348 346 355 61 39 33 7 8 10 14 9 28 46 44 52 51 54 65 55 43 359 3 2 332 344 2 64 92 97 93 96 97 94 95 101 89 55 12 77 95 71 22 6 47 53 23 24 35 38 32 39 49 58 61 62
146 147 146 141 140 139 137 133 128 124 131 124 114 123 129 130 125 117 107 92 88 77 67 62 56 51 30 19 9 1 354 11 19 118 92 46 13 2 5 5 6 10 18 34 23 24 28 36 38 28 360 356 355 359 14 39 75 84 107 118 117 112 108 106 83 73 55 21 32 30 85 49 358 57 45 22 18 45 34 31 35 44 51 60 65
140 137 134 134 138 139 139 135 128 131 133 117 121 131 139 140 132 117 115 105 100 89 66 48 45 40 51 41 36 30 20 25 29 60 68 59 36 16 16 14 30 39 22 11 356 22 43 11 4 358 358 13 33 47 56 64 67 80 86 80 69 77 87 74 66 31 51 21 46 78 96 79 9 72 50 19 35 51 35 43 28 35 43 54 70
150 151 148 142 140 141 144 147 142 145 145 132 131 143 154 152 132 128 123 112 99 90 69 42 21 12 54 64 58 39 34 28 24 57 70 78 52 36 37 51 53 49 26 1 5 15 17 22 22 30 32 26 34 48 57 61 68 83 98 84 72 71 90 87 64 57 34 1 22 56 98 91 30 77 73 26 35 36 29 29 32 33 36 35 44
152 150 142 136 142 148 151 154 153 145 152 141 139 155 170 170 149 143 141 127 113 100 81 34 28 11 41 75 68 59 46 20 24 42 43 63 62 48 58 72 61 46 23 2 9 10 24 37 35 30 29 30 28 45 55 60 59 55 83 98 70 85 78 81 96 83 44 33 4 29 75 96 107 80 77 344 33 29 13 15 30 22 27 24 22
142 143 143 141 144 145 149 151 154 142 154 153 159 170 172 177 155 135 141 135 119 121 112 73 16 27 9 34 66 59 56 36 40 34 36 64 73 59 76 81 70 45 345 4 24 17 10 18 19 21 19 18 23 34 44 53 57 58 72 100 87 97 109 101 111 103 71 9 330 41 86 19 69 36 114 38 37 319 358 351 5 7 13 15 27